x

Niagara Coast Guard Station, Ny (ygnn6) Weather Station

9:00pm - Wed 22nd Nov 2017 All times are CST. -6 hours from GMT.

  • Wind
    11mph, 15mph gusts
  • Air Temp 33°f
  • Sea Pressure 1022.7mb
  • Niagara Coast Guard Station, Ny
  • Niagara Coast Guard Station, Ny

More Historic Weather Station data

Upgrade to MSW Pro to gain access to the past 30 days of data for over 8000 Wavebouys and Weather Stations around the globe.

Join

Comparision Forecast

View Surf forecast
   
Wed 11/22 9:00pm 11 15 mph 1022.7mb 33f
8:50pm 10 16 mph 1022.7mb 33f
8:40pm 13 16 mph 1023mb 33f
8:30pm 11 18 mph 1023mb 33f
8:20pm 11 16 mph 1023mb 33f
8:10pm 14 17 mph 1023.4mb 33f
8:00pm 14 17 mph 1023mb 32f
7:50pm 15 17 mph 1023mb 32f
7:40pm 11 21 mph 1023.4mb 32f
7:30pm 13 20 mph 1023.4mb 32f
7:20pm 15 21 mph 1023.4mb 32f
7:10pm 16 20 mph 1023.7mb 32f
7:00pm 15 21 mph 1023.7mb 32f
6:50pm 18 22 mph 1023.4mb 32f
6:40pm 14 20 mph 1023.7mb 32f
6:30pm 11 21 mph 1023.7mb 32f
6:20pm 16 25 mph 1023.7mb 32f
6:10pm 20 24 mph 1023.7mb 32f
6:00pm 17 21 mph 1023.7mb 32f
5:50pm 15 22 mph 1024mb 32f
5:40pm 16 23 mph 1023.7mb 32f
5:30pm 20 25 mph 1023.7mb 32f
5:20pm 17 24 mph 1023.7mb 32f
5:10pm 21 26 mph 1023.7mb 33f
5:00pm 18 26 mph 1023.7mb 33f
4:50pm 18 23 mph 1023.4mb 33f
4:40pm 16 23 mph 1023.4mb 33f
4:30pm 15 20 mph 1023mb 33f
4:20pm 15 22 mph 1023mb 33f
4:10pm 15 22 mph 1023mb 34f
4:00pm 14 21 mph 1023mb 34f
3:50pm 16 20 mph 1023mb 34f
3:40pm 10 20 mph 1023mb 33f
3:30pm 15 21 mph 1022.7mb 33f
3:20pm 16 24 mph 1022.7mb 33f
3:10pm 17 21 mph 1022.7mb 33f
3:00pm 17 22 mph 1022.7mb 33f
2:50pm 16 23 mph 1022.7mb 33f
2:40pm 17 22 mph 1022.4mb 33f
2:30pm 16 23 mph 1022.4mb 33f
2:20pm 17 22 mph 1022.4mb 33f
2:10pm 18 23 mph 1022mb 33f
2:00pm 17 23 mph 1021.7mb 33f
1:50pm 18 25 mph 1021.7mb 33f
1:40pm 20 24 mph 1021.3mb 33f
1:30pm 14 23 mph 1021.3mb 33f
1:20pm 21 25 mph 1021.3mb 33f
1:10pm 18 24 mph 1021.3mb 33f
1:00pm 18 24 mph 1021.3mb 33f
12:50pm 18 24 mph 1021.3mb 33f
12:40pm 16 24 mph 1021.3mb 33f
12:30pm 20 24 mph 1021.7mb 33f
12:20pm 22 24 mph 1021.3mb 34f
12:10pm 20 24 mph 1021.3mb 34f
12:00pm 20 22 mph 1021.3mb 34f
11:50am 16 24 mph 1021.3mb 34f
11:40am 18 24 mph 1021mb 33f
11:30am 18 28 mph 1021mb 33f
11:20am 20 25 mph 1021mb 34f
11:10am 20 30 mph 1021mb 34f
11:00am 22 25 mph 1021mb 34f
10:50am 23 29 mph 1021mb 34f
10:40am 20 26 mph 1021mb 35f
10:30am 20 24 mph 1021mb 35f
10:20am 17 22 mph 1021mb 34f
10:10am 18 23 mph 1021mb 35f
10:00am 21 26 mph 1021mb 35f
9:50am 18 26 mph 1021mb 35f
9:40am 21 25 mph 1021mb 35f
9:30am 21 25 mph 1021mb 35f
9:20am 21 26 mph 1021mb 35f
9:10am 22 25 mph 1021mb 35f
9:00am 22 28 mph 1020.7mb 35f
8:50am 25 29 mph 1020.7mb 35f
8:40am 25 31 mph 1020.7mb 35f
8:30am 25 30 mph 1020.3mb 35f
8:20am 24 29 mph 1020.3mb 36f
8:10am 23 31 mph 1020mb 36f
8:00am 22 26 mph 1020mb 36f
7:50am 23 30 mph 1020mb 36f
7:40am 23 29 mph 1019.6mb 37f
7:30am 25 30 mph 1020mb 37f
7:20am 24 30 mph 1019.3mb 37f
7:10am 24 32 mph 1019.3mb 37f
7:00am 26 32 mph 1019mb 37f
6:50am 26 31 mph 1019mb 38f
6:40am 26 31 mph 1018.6mb 38f
6:30am 23 32 mph 1018.6mb 38f
6:20am 28 31 mph 1018.3mb 38f
6:10am 26 33 mph 1017.9mb 38f
6:00am 28 33 mph 1017.6mb 38f
5:50am 30 33 mph 1017.3mb 38f
5:40am 26 31 mph 1017.3mb 39f
5:30am 23 28 mph 1017.3mb 38f
5:20am 22 28 mph 1016.9mb 38f
5:10am 22 26 mph 1016.9mb 38f
5:00am 22 25 mph 1016.9mb 39f
4:50am 21 24 mph 1016.9mb 38f
4:40am 22 26 mph 1016.9mb 39f
4:30am 23 28 mph 1016.6mb 39f
4:20am 23 28 mph 1016.6mb 39f
4:10am 22 25 mph 1016.3mb 39f
4:00am 22 25 mph 1016.3mb 39f
3:50am 22 25 mph 1015.9mb 39f
3:40am 21 26 mph 1015.9mb 39f
3:30am 20 25 mph 1015.6mb 39f
3:20am 21 25 mph 1015.6mb 39f
3:10am 20 22 mph 1015.2mb 40f
3:00am 20 23 mph 1015.2mb 40f
2:50am 17 22 mph 1015.2mb 40f
2:40am 20 24 mph 1015.2mb 40f
2:30am 18 24 mph 1015.2mb 40f
2:20am 22 26 mph 1014.9mb 40f
2:10am 23 28 mph 1014.9mb 40f
2:00am 23 25 mph 1014.6mb 40f
Tue 11/21 11:00pm 15 17 mph 1012.9mb 41f
10:00pm 18 22 mph 1011.9mb 42f
9:50pm 16 18 mph 1011.9mb 42f
9:40pm 16 22 mph 1011.9mb 42f
9:30pm 16 21 mph 1011.9mb 42f
9:20pm 14 22 mph 1011.5mb 42f
9:10pm 16 22 mph 1011.2mb 42f
9:00pm 21 26 mph 1011.2mb 43f
8:50pm 20 28 mph 1010.8mb 43f
8:40pm 21 23 mph 1010.8mb 43f
8:30pm 20 23 mph 1010.8mb 44f
8:20pm 16 23 mph 1010.8mb 44f
8:10pm 21 23 mph 1010.5mb 45f
8:00pm 16 22 mph 1010.5mb 46f
7:50pm 15 20 mph 1010.5mb 48f
7:40pm 10 16 mph 1010.2mb 50f
7:30pm 10 17 mph 1009.8mb 50f
7:20pm 9 20 mph 1009.8mb 50f
7:10pm 10 15 mph 1010.2mb 50f
7:00pm 10 16 mph 1009.8mb 50f
6:50pm 8 16 mph 1009.8mb 50f
6:40pm 10 17 mph 1009.8mb 50f
6:30pm 11 16 mph 1009.8mb 50f
6:20pm 6 11 mph 1009.8mb 49f
6:10pm 7 9 mph 1009.8mb 49f
6:00pm 8 17 mph 1009.5mb 50f
5:50pm 9 14 mph 1009.5mb 50f
5:40pm 8 14 mph 1009.5mb 50f
5:30pm 9 15 mph 1009.5mb 50f
5:20pm 10 15 mph 1009.5mb 50f
5:10pm 7 14 mph 1009.5mb 50f
5:00pm 10 14 mph 1009.1mb 50f
4:50pm 8 11 mph 1009.1mb 50f
4:40pm 7 11 mph 1008.8mb 50f
4:30pm 8 15 mph 1008.8mb 50f
4:20pm 9 16 mph 1008.8mb 51f
4:10pm 10 18 mph 1009.1mb 51f
4:00pm 16 21 mph 1008.8mb 51f
3:50pm 16 21 mph 1008.5mb 51f
3:40pm 16 23 mph 1008.5mb 51f
3:30pm 16 23 mph 1008.5mb 52f
3:20pm 14 24 mph 1008.1mb 52f
3:10pm 14 25 mph 1008.1mb 52f
3:00pm 18 28 mph 1008.1mb 52f
2:50pm 18 34 mph 1007.8mb 52f
2:40pm 20 31 mph 1007.8mb 52f
2:30pm 23 34 mph 1006.8mb 53f
2:20pm 20 33 mph 1007.5mb 53f
2:10pm 24 34 mph 1007.1mb 54f
2:00pm 22 34 mph 1007.1mb 54f
1:50pm 24 31 mph 1006.8mb 54f
1:40pm 22 40 mph 1006.8mb 53f
1:30pm 23 37 mph 1006.8mb 53f
1:20pm 22 37 mph 1006.4mb 53f
1:10pm 22 33 mph 1006.4mb 53f
1:00pm 24 34 mph 1006.4mb 53f
12:50pm 23 32 mph 1006.4mb 53f
12:40pm 22 36 mph 1006.1mb 53f
12:30pm 18 28 mph 1006.4mb 53f
12:20pm 23 34 mph 1006.4mb 53f
12:10pm 24 38 mph 1006.4mb 53f
12:00pm 25 41 mph 1006.1mb 52f
11:50am 24 36 mph 1006.1mb 52f
11:40am 22 36 mph 1005.8mb 52f
11:30am 23 38 mph 1005.4mb 52f
11:20am 21 33 mph 1005.8mb 52f
11:10am 22 36 mph 1005.8mb 51f
11:00am 18 31 mph 1005.4mb 51f
10:50am 21 33 mph 1005.8mb 51f
10:40am 25 32 mph 1006.1mb 51f
10:30am 20 33 mph 1006.1mb 51f
10:20am 24 39 mph 1006.1mb 51f
10:10am 23 40 mph 1006.1mb 51f
10:00am 24 33 mph 1006.1mb 51f
9:50am 24 40 mph 1006.4mb 51f
9:40am 22 34 mph 1006.4mb 51f
9:30am 22 33 mph 1006.4mb 51f
9:20am 21 31 mph 1006.4mb 50f
9:10am 18 33 mph 1006.4mb 50f
9:00am 18 31 mph 1006.4mb 51f
8:50am 20 45 mph 1006.4mb 50f
8:40am 17 30 mph 1006.1mb 50f
8:30am 20 32 mph 1006.4mb 50f
8:20am 21 30 mph 1006.1mb 50f
8:10am 22 29 mph 1006.1mb 49f
8:00am 16 28 mph 1006.1mb 49f
7:50am 17 24 mph 1006.1mb 48f
7:40am 15 25 mph 1006.1mb 48f
7:30am 17 26 mph 1006.1mb 48f
7:20am 20 29 mph 1006.4mb 48f
7:10am 15 23 mph 1006.4mb 47f
7:00am 15 25 mph 1006.4mb 47f
6:50am 16 28 mph 1006.4mb 47f
6:40am 15 23 mph 1006.8mb 47f
6:30am 17 24 mph 1006.4mb 47f
6:20am 20 28 mph 1006.8mb 47f
6:10am 17 26 mph 1006.8mb 47f
6:00am 18 31 mph 1006.8mb 47f
5:50am 17 28 mph 1007.1mb 47f
5:40am 17 26 mph 1007.1mb 47f
5:30am 16 28 mph 1007.1mb 47f
5:20am 20 26 mph 1007.5mb 47f
5:10am 18 28 mph 1007.5mb 47f
5:00am 20 30 mph 1007.5mb 47f
4:50am 18 28 mph 1007.5mb 47f
4:40am 17 28 mph 1007.5mb 46f
4:30am 17 28 mph 1007.8mb 47f
4:20am 18 25 mph 1007.8mb 46f
4:10am 16 26 mph 1007.8mb 47f
4:00am 18 26 mph 1008.1mb 47f
3:50am 16 24 mph 1008.1mb 47f
3:40am 17 23 mph 1008.5mb 47f
3:30am 18 28 mph 1008.5mb 46f
3:20am 16 31 mph 1008.5mb 46f
3:10am 18 26 mph 1008.5mb 46f
3:00am 16 23 mph 1008.8mb 47f
2:50am 17 29 mph 1008.8mb 47f
2:40am 17 24 mph 1008.5mb 47f
2:30am 17 25 mph 1008.8mb 46f
2:20am 17 28 mph 1008.8mb 46f
2:10am 20 26 mph 1008.8mb 46f
2:00am 16 24 mph 1009.1mb 46f
1:50am 15 24 mph 1009.5mb 46f
1:40am 16 25 mph 1009.5mb 46f
1:30am 16 23 mph 1009.5mb 46f
1:20am 13 20 mph 1009.5mb 46f
1:10am 14 25 mph 1009.5mb 46f
1:00am 16 24 mph 1009.5mb 46f
12:50am 16 25 mph 1009.5mb 46f
12:40am 15 25 mph 1009.5mb 46f
12:30am 14 23 mph 1009.5mb 46f
12:20am 15 22 mph 1009.5mb 46f
12:10am 18 32 mph 1009.5mb 46f
12:00am 18 28 mph 1009.5mb 46f
Mon 11/20 11:50pm 17 24 mph 1009.8mb 46f
11:40pm 20 26 mph 1009.8mb 46f
11:30pm 18 28 mph 1010.2mb 46f
11:20pm 17 26 mph 1010.2mb 46f
11:10pm 15 23 mph 1009.8mb 46f
11:00pm 15 24 mph 1010.2mb 46f
10:50pm 14 22 mph 1010.2mb 46f
10:40pm 16 22 mph 1010.2mb 46f
10:30pm 14 24 mph 1009.8mb 46f
10:20pm 16 24 mph 1010.2mb 46f
10:10pm 18 25 mph 1010.2mb 46f
10:00pm 17 25 mph 1010.5mb 46f
9:50pm 14 21 mph 1010.5mb 46f
9:40pm 13 21 mph 1010.5mb 46f
9:30pm 14 21 mph 1010.5mb 46f
9:20pm 11 22 mph 1010.8mb 45f
9:10pm 13 21 mph 1010.8mb 45f
9:00pm 11 20 mph 1011.2mb 45f
8:50pm 13 21 mph 1011.2mb 45f
8:40pm 13 17 mph 1011.2mb 45f
8:30pm 10 18 mph 1011.2mb 45f
8:20pm 10 21 mph 1011.5mb 45f
8:10pm 9 16 mph 1011.5mb 45f
8:00pm 8 14 mph 1011.9mb 45f
7:50pm 10 17 mph 1011.9mb 45f
7:40pm 9 15 mph 1011.9mb 45f
7:30pm 10 21 mph 1011.9mb 45f
7:20pm 13 22 mph 1011.9mb 45f
7:10pm 11 18 mph 1012.2mb 45f
7:00pm 9 14 mph 1011.9mb 45f
6:50pm 9 15 mph 1012.2mb 45f
6:40pm 9 17 mph 1012.2mb 45f
6:30pm 7 13 mph 1012.2mb 45f
6:20pm 9 15 mph 1011.9mb 45f
6:10pm 11 18 mph 1011.9mb 45f
6:00pm 8 14 mph 1012.2mb 45f
5:50pm 7 14 mph 1012.2mb 44f
5:40pm 11 14 mph 1012.2mb 44f
5:30pm 8 14 mph 1012.2mb 44f
5:20pm 9 14 mph 1012.2mb 44f
5:10pm 8 13 mph 1012.2mb 43f
5:00pm 7 10 mph 1012.5mb 43f
4:50pm 8 13 mph 1012.5mb 43f
4:40pm 7 11 mph 1012.5mb 43f
4:30pm 7 11 mph 1012.5mb 43f
4:20pm 6 11 mph 1012.5mb 43f
4:10pm 7 9 mph 1012.5mb 43f
4:00pm 7 11 mph 1012.5mb 44f
3:50pm 8 14 mph 1012.9mb 44f
3:40pm 8 15 mph 1012.9mb 44f
3:30pm 7 17 mph 1012.9mb 44f
3:20pm 11 22 mph 1012.9mb 44f
3:10pm 13 18 mph 1012.9mb 45f
3:00pm 14 29 mph 1012.9mb 45f
2:50pm 15 25 mph 1012.9mb 45f
2:40pm 14 22 mph 1012.9mb 44f
2:30pm 13 23 mph 1012.9mb 44f
2:20pm 16 23 mph 1012.9mb 44f
2:10pm 18 25 mph 1012.9mb 44f
2:00pm 15 23 mph 1012.9mb 45f
1:50pm 17 30 mph 1012.9mb 45f
1:40pm 16 30 mph 1012.9mb 45f
1:30pm 14 25 mph 1012.9mb 44f
1:20pm 16 28 mph 1012.9mb 44f
1:10pm 15 23 mph 1012.9mb 44f
1:00pm 14 21 mph 1013.2mb 44f
12:50pm 13 22 mph 1013.2mb 44f
12:40pm 11 23 mph 1013.2mb 44f
12:30pm 11 20 mph 1013.2mb 44f
12:20pm 15 23 mph 1013.2mb 43f
12:10pm 14 22 mph 1013.5mb 42f
12:00pm 13 17 mph 1013.5mb 42f
11:50am 14 22 mph 1013.5mb 41f
11:40am 15 22 mph 1013.9mb 41f
11:30am 15 25 mph 1013.9mb 41f
11:20am 15 21 mph 1014.2mb 40f
11:10am 10 20 mph 1014.6mb 40f
11:00am 14 18 mph 1014.6mb 39f
10:50am 13 20 mph 1014.6mb 39f
10:40am 13 20 mph 1014.9mb 39f
10:30am 14 17 mph 1014.9mb 39f
10:20am 14 18 mph 1014.9mb 38f
10:10am 11 17 mph 1014.9mb 38f
10:00am 10 20 mph 1015.2mb 38f
9:50am 13 20 mph 1015.2mb 37f
9:40am 16 21 mph 1015.2mb 37f
9:30am 11 20 mph 1015.6mb 37f
9:20am 14 20 mph 1015.6mb 36f
9:10am 14 22 mph 1015.6mb 36f
9:00am 13 20 mph 1015.6mb 36f
8:50am 10 18 mph 1015.6mb 35f
8:40am 8 16 mph 1015.6mb 34f
8:30am 11 15 mph 1015.6mb 34f
8:20am 11 18 mph 1015.6mb 33f
8:10am 8 15 mph 1015.6mb 33f
8:00am 9 22 mph 1015.6mb 33f
7:50am 9 20 mph 1015.6mb 33f
7:40am 11 17 mph 1015.6mb 32f
7:30am 10 17 mph 1015.6mb 32f
7:20am 11 20 mph 1015.6mb 32f
7:10am 14 21 mph 1015.6mb 32f
7:00am 13 17 mph 1015.2mb 31f
6:50am 11 16 mph 1015.2mb 31f
6:40am 9 17 mph 1015.2mb 31f
6:30am 10 17 mph 1015.2mb 31f
6:20am 13 18 mph 1015.2mb 31f
6:10am 10 18 mph 1014.9mb 31f
6:00am 13 22 mph 1015.2mb 31f
5:50am 11 18 mph 1014.9mb 32f
5:40am 13 21 mph 1014.9mb 32f
5:30am 13 22 mph 1014.6mb 32f
5:20am 14 18 mph 1014.2mb 33f
5:10am 13 20 mph 1014.2mb 33f
5:00am 11 17 mph 1014.2mb 33f
4:50am 11 16 mph 1014.2mb 32f
4:40am 10 17 mph 1013.9mb 32f
4:30am 10 15 mph 1013.9mb 33f
4:20am 13 18 mph 1013.9mb 33f
4:10am 10 17 mph 1013.9mb 33f
4:00am 13 18 mph 1013.9mb 33f
3:50am 11 18 mph 1013.9mb 33f
3:40am 13 20 mph 1013.9mb 33f
3:30am 11 18 mph 1013.5mb 33f
3:20am 16 21 mph 1013.5mb 33f
3:10am 14 21 mph 1013.5mb 33f
3:00am 13 18 mph 1013.5mb 33f
2:50am 13 20 mph 1013.2mb 33f
2:40am 10 16 mph 1013.5mb 33f
2:30am 11 17 mph 1013.5mb 33f
2:20am 14 21 mph 1013.5mb 34f
2:10am 13 21 mph 1013.2mb 34f
2:00am 11 18 mph 1013.2mb 34f
1:50am 11 22 mph 1013.2mb 34f
1:40am 14 20 mph 1012.9mb 34f
1:30am 13 18 mph 1012.9mb 33f
1:20am 10 21 mph 1012.9mb 33f
1:10am 11 15 mph 1012.5mb 33f
1:00am 11 24 mph 1012.5mb 34f
12:50am 13 26 mph 1012.2mb 34f
12:40am 21 31 mph 1012.2mb 35f
12:30am 15 22 mph 1012.2mb 34f
12:20am 17 23 mph 1012.2mb 35f
12:10am 18 29 mph 1011.9mb 35f
12:00am 21 30 mph 1011.9mb 36f
Sun 11/19 11:50pm 22 29 mph 1011.5mb 35f
11:40pm 23 31 mph 1011.5mb 36f
11:30pm 26 32 mph 1011.5mb 36f
11:20pm 23 31 mph 1011.5mb 36f
11:10pm 21 26 mph 1011.5mb 36f
11:00pm 16 24 mph 1011.5mb 36f
10:50pm 10 34 mph 1011.5mb 36f
10:40pm 11 26 mph 1011.2mb 34f
10:30pm 24 36 mph 1011.2mb 36f
10:20pm 30 36 mph 1010.8mb 36f
10:10pm 24 31 mph 1010.8mb 37f
10:00pm 23 29 mph 1010.8mb 36f
9:50pm 23 30 mph 1010.8mb 36f
9:40pm 22 29 mph 1010.8mb 36f
9:30pm 25 30 mph 1010.5mb 36f
9:20pm 23 26 mph 1010.8mb 36f
9:10pm 22 28 mph 1010.5mb 36f
9:00pm 22 30 mph 1010.5mb 36f
8:50pm 22 29 mph 1010.5mb 36f
8:40pm 18 23 mph 1010.5mb 35f
8:30pm 18 22 mph 1010.5mb 35f
8:20pm 17 21 mph 1010.5mb 35f
8:10pm 17 21 mph 1010.5mb 35f
8:00pm 16 23 mph 1010.2mb 35f
7:50pm 16 23 mph 1010.2mb 35f
7:40pm 20 28 mph 1009.8mb 35f
7:30pm 23 28 mph 1009.8mb 36f
7:20pm 20 26 mph 1009.8mb 36f
7:10pm 18 25 mph 1009.8mb 36f
7:00pm 22 29 mph 1009.5mb 36f
6:50pm 22 28 mph 1009.5mb 36f
6:40pm 23 29 mph 1009.5mb 37f
6:30pm 24 29 mph 1009.5mb 36f
6:20pm 21 30 mph 1009.1mb 36f
6:10pm 22 32 mph 1009.1mb 37f
6:00pm 26 31 mph 1009.1mb 37f
5:50pm 25 32 mph 1008.8mb 37f
5:40pm 28 33 mph 1008.5mb 37f
5:30pm 26 34 mph 1008.5mb 37f
5:20pm 29 33 mph 1008.1mb 37f
5:10pm 26 31 mph 1008.1mb 37f
5:00pm 28 33 mph 1007.8mb 38f
4:50pm 28 33 mph 1007.8mb 38f
4:40pm 26 34 mph 1007.5mb 38f
4:30pm 28 36 mph 1007.1mb 38f
4:20pm 30 39 mph 1007.1mb 38f
4:10pm 31 38 mph 1007.5mb 38f
4:00pm 30 37 mph 1007.1mb 38f
3:50pm 34 39 mph 1006.8mb 38f
3:40pm 31 37 mph 1006.8mb 39f
3:30pm 28 37 mph 1006.4mb 39f
3:20pm 30 39 mph 1006.1mb 39f
3:10pm 31 39 mph 1006.1mb 39f
3:00pm 32 39 mph 1005.8mb 39f
2:50pm 29 39 mph 1005.8mb 39f
2:40pm 31 37 mph 1005.8mb 39f
2:30pm 32 37 mph 1005.4mb 39f
2:20pm 23 32 mph 1005.1mb 40f
2:10pm 23 32 mph 1005.1mb 39f
2:00pm 21 31 mph 1004.7mb 40f
1:50pm 24 32 mph 1004.7mb 41f
1:40pm 25 32 mph 1004.4mb 41f
1:30pm 28 32 mph 1004.1mb 41f
1:20pm 25 29 mph 1004.1mb 41f
1:10pm 22 24 mph 1004.4mb 41f
1:00pm 17 23 mph 1004.4mb 40f
12:50pm 20 24 mph 1004.4mb 41f
12:40pm 20 22 mph 1004.4mb 41f
12:30pm 17 23 mph 1004.4mb 40f
12:20pm 20 24 mph 1004.1mb 41f
12:10pm 20 23 mph 1004.1mb 41f
12:00pm 18 23 mph 1004.1mb 40f
11:50am 21 29 mph 1004.1mb 41f
11:40am 23 30 mph 1004.1mb 41f
11:30am 25 32 mph 1004.1mb 41f
11:20am 25 29 mph 1004.1mb 41f
11:10am 23 30 mph 1004.1mb 40f
11:00am 26 31 mph 1004.1mb 41f
10:50am 20 26 mph 1004.1mb 41f
10:40am 23 25 mph 1004.1mb 41f
10:30am 22 29 mph 1004.1mb 41f
10:20am 25 31 mph 1004.1mb 41f
10:10am 26 32 mph 1004.1mb 41f
10:00am 28 32 mph 1003.7mb 41f
9:50am 28 33 mph 1003.7mb 41f
9:40am 31 36 mph 1003.4mb 41f
9:30am 25 29 mph 1003.4mb 41f
9:20am 23 26 mph 1003mb 41f
9:10am 20 28 mph 1003mb 40f
9:00am 23 30 mph 1003mb 40f
8:50am 24 29 mph 1002.7mb 40f
8:40am 25 30 mph 1002.7mb 40f
8:30am 23 29 mph 1002.7mb 41f
8:20am 23 26 mph 1002.4mb 41f
8:10am 20 26 mph 1002.4mb 40f
8:00am 22 28 mph 1002mb 40f
7:50am 23 31 mph 1002mb 40f
7:40am 24 33 mph 1001.7mb 40f
7:30am 28 32 mph 1001.4mb 40f
7:20am 28 32 mph 1001.4mb 40f
7:10am 29 34 mph 1001mb 41f
7:00am 26 33 mph 1001mb 41f
6:50am 26 31 mph 1000.7mb 41f
6:40am 24 29 mph 1000.3mb 41f
6:30am 17 24 mph 1000.3mb 40f
6:20am 18 28 mph 1000.3mb 39f
6:10am 23 31 mph 1000mb 40f
6:00am 26 38 mph 999.7mb 40f
5:50am 31 37 mph 999.3mb 40f
5:40am 31 37 mph 999mb 40f
5:30am 34 45 mph 998.6mb 40f
5:20am 33 43 mph 998.3mb 41f
5:10am 34 39 mph 998mb 41f
5:00am 31 38 mph 998mb 40f
4:50am 29 43 mph 997.6mb 41f
4:40am 31 38 mph 997.3mb 41f